QPF
0.01 0.01 0.01 0.00 0.00 0.00 0.00 0.00 0.01 0.01 0.03 0.02 0.02 0.02 0.03 0.02 0.02 0.02 0.02 0.05 0.05 0.06 0.08 0.09 0.08 0.06 0.06 0.06 0.06 0.07 0.06 0.05 0.05 0.03 0.04 0.05 0.05 0.06 0.06 0.08 0.12 0.18 0.23
0.00 0.00 0.00 0.00 0.00 0.00 0.00 0.00 0.01 0.02 0.04 0.03 0.02 0.03 0.03 0.02 0.03 0.03 0.02 0.03 0.04 0.06 0.07 0.11 0.14 0.11 0.09 0.09 0.07 0.08 0.11 0.13 0.11 0.07 0.06 0.05 0.06 0.06 0.06 0.09 0.12 0.13 0.14
0.00 0.00 0.00 0.00 0.00 0.00 0.00 0.00 0.01 0.02 0.03 0.04 0.03 0.03 0.02 0.02 0.02 0.03 0.02 0.01 0.02 0.03 0.04 0.04 0.08 0.11 0.12 0.10 0.07 0.07 0.14 0.18 0.17 0.11 0.07 0.06 0.07 0.06 0.07 0.09 0.11 0.14 0.14
0.00 0.00 0.00 0.00 0.00 0.00 0.00 0.01 0.01 0.02 0.02 0.03 0.03 0.03 0.02 0.03 0.03 0.03 0.02 0.01 0.01 0.01 0.01 0.02 0.03 0.05 0.06 0.07 0.06 0.07 0.10 0.13 0.12 0.09 0.05 0.04 0.06 0.08 0.08 0.09 0.09 0.10 0.11
0.00 0.00 0.00 0.00 0.00 0.00 0.00 0.00 0.00 0.01 0.01 0.02 0.02 0.01 0.02 0.04 0.05 0.03 0.02 0.02 0.02 0.01 0.01 0.01 0.02 0.02 0.03 0.05 0.07 0.08 0.07 0.07 0.06 0.06 0.04 0.04 0.05 0.13 0.16 0.14 0.12 0.12 0.09
0.00 0.00 0.00 0.00 0.00 0.00 0.00 0.00 0.00 0.01 0.02 0.03 0.02 0.02 0.03 0.04 0.04 0.03 0.03 0.03 0.02 0.01 0.01 0.01 0.01 0.01 0.01 0.03 0.08 0.08 0.07 0.05 0.05 0.06 0.05 0.05 0.05 0.10 0.15 0.15 0.14 0.16 0.12
0.00 0.00 0.00 0.00 0.00 0.00 0.00 0.00 0.00 0.01 0.02 0.02 0.02 0.01 0.03 0.03 0.04 0.03 0.02 0.02 0.01 0.01 0.01 0.01 0.00 0.00 0.00 0.03 0.07 0.07 0.06 0.05 0.04 0.05 0.06 0.05 0.05 0.06 0.08 0.10 0.10 0.19 0.24
0.00 0.00 0.01 0.00 0.00 0.00 0.00 0.00 0.00 0.01 0.01 0.01 0.01 0.01 0.02 0.03 0.04 0.03 0.02 0.01 0.01 0.01 0.02 0.01 0.00 0.00 0.01 0.04 0.07 0.06 0.04 0.03 0.03 0.04 0.04 0.04 0.04 0.04 0.07 0.07 0.07 0.10 0.18
0.00 0.00 0.00 0.00 0.00 0.00 0.00 0.01 0.01 0.01 0.01 0.01 0.01 0.02 0.02 0.02 0.02 0.03 0.03 0.02 0.02 0.02 0.02 0.01 0.00 0.00 0.02 0.05 0.06 0.07 0.06 0.03 0.03 0.03 0.03 0.03 0.03 0.03 0.05 0.07 0.07 0.09 0.09
0.00 0.00 0.00 0.00 0.00 0.00 0.01 0.01 0.02 0.02 0.01 0.01 0.01 0.01 0.02 0.03 0.02 0.02 0.03 0.03 0.03 0.02 0.02 0.02 0.01 0.00 0.01 0.04 0.06 0.06 0.07 0.07 0.04 0.03 0.03 0.03 0.03 0.03 0.03 0.04 0.05 0.05 0.05
0.00 0.00 0.00 0.00 0.00 0.00 0.01 0.01 0.01 0.01 0.01 0.01 0.01 0.01 0.01 0.02 0.02 0.03 0.02 0.02 0.03 0.03 0.03 0.02 0.01 0.01 0.01 0.02 0.04 0.04 0.04 0.04 0.04 0.04 0.04 0.03 0.03 0.04 0.04 0.04 0.03 0.03 0.04
0.00 0.00 0.00 0.00 0.00 0.00 0.00 0.01 0.01 0.00 0.01 0.01 0.01 0.01 0.01 0.01 0.01 0.02 0.03 0.02 0.03 0.03 0.03 0.04 0.03 0.02 0.01 0.01 0.02 0.02 0.02 0.02 0.02 0.02 0.02 0.02 0.02 0.03 0.04 0.05 0.04 0.04 0.04
0.00 0.01 0.00 0.00 0.01 0.00 0.00 0.01 0.02 0.01 0.01 0.01 0.01 0.01 0.01 0.01 0.01 0.03 0.02 0.03 0.02 0.02 0.03 0.04 0.04 0.03 0.02 0.02 0.01 0.01 0.01 0.00 0.01 0.00 0.00 0.00 0.01 0.01 0.02 0.04 0.06 0.08 0.08
0.00 0.01 0.00 0.00 0.01 0.01 0.01 0.03 0.05 0.03 0.02 0.01 0.01 0.01 0.01 0.01 0.01 0.01 0.01 0.01 0.02 0.01 0.02 0.02 0.03 0.02 0.01 0.01 0.02 0.02 0.01 0.00 0.01 0.00 0.00 0.00 0.00 0.01 0.01 0.02 0.05 0.06 0.05
0.01 0.00 0.00 0.00 0.01 0.01 0.01 0.01 0.03 0.03 0.03 0.02 0.01 0.02 0.02 0.01 0.01 0.01 0.01 0.01 0.01 0.01 0.01 0.01 0.01 0.01 0.01 0.01 0.01 0.00 0.01 0.00 0.00 0.01 0.00 0.00 0.00 0.01 0.01 0.01 0.01 0.01 0.01
0.00 0.00 0.00 0.00 0.01 0.01 0.01 0.01 0.02 0.02 0.03 0.02 0.01 0.01 0.01 0.01 0.01 0.01 0.01 0.01 0.01 0.00 0.00 0.00 0.00 0.01 0.01 0.01 0.01 0.00 0.01 0.01 0.01 0.00 0.00 0.00 0.00 0.01 0.01 0.01 0.01 0.01 0.01
0.00 0.00 0.00 0.00 0.01 0.01 0.01 0.01 0.01 0.01 0.02 0.03 0.02 0.01 0.00 0.01 0.01 0.01 0.01 0.01 0.01 0.00 0.00 0.00 0.00 0.01 0.01 0.02 0.01 0.01 0.01 0.01 0.01 0.01 0.00 0.00 0.00 0.00 0.01 0.01 0.01 0.01 0.01
0.00 0.01 0.01 0.01 0.01 0.00 0.00 0.00 0.01 0.01 0.01 0.03 0.02 0.01 0.01 0.02 0.01 0.02 0.01 0.01 0.00 0.00 0.00 0.00 0.00 0.01 0.02 0.02 0.01 0.02 0.01 0.01 0.01 0.01 0.00 0.00 0.00 0.00 0.00 0.00 0.00 0.00 0.00
0.00 0.00 0.00 0.01 0.01 0.00 0.00 0.00 0.01 0.01 0.01 0.02 0.02 0.02 0.02 0.01 0.01 0.01 0.01 0.01 0.00 0.00 0.01 0.00 0.00 0.01 0.01 0.01 0.01 0.02 0.01 0.01 0.01 0.01 0.01 0.00 0.00 0.00 0.00 0.00 0.00 0.00 0.00
0.00 0.00 0.00 0.01 0.01 0.00 0.00 0.01 0.01 0.01 0.01 0.01 0.02 0.02 0.02 0.01 0.01 0.01 0.01 0.01 0.00 0.00 0.00 0.00 0.00 0.01 0.01 0.01 0.01 0.01 0.02 0.03 0.03 0.02 0.01 0.00 0.00 0.00 0.00 0.00 0.00 0.00 0.00
0.00 0.00 0.00 0.00 0.01 0.00 0.00 0.01 0.00 0.01 0.00 0.00 0.01 0.01 0.02 0.01 0.01 0.02 0.01 0.01 0.00 0.00 0.00 0.00 0.01 0.01 0.01 0.01 0.01 0.01 0.03 0.04 0.04 0.04 0.01 0.00 0.00 0.00 0.00 0.00 0.00 0.00 0.00
0.00 0.00 0.00 0.00 0.01 0.00 0.01 0.00 0.00 0.01 0.00 0.00 0.01 0.01 0.01 0.01 0.00 0.01 0.02 0.01 0.00 0.00 0.00 0.00 0.00 0.00 0.00 0.01 0.01 0.01 0.01 0.01 0.02 0.02 0.02 0.02 0.01 0.00 0.00 0.00 0.00 0.00 0.00
0.00 0.00 0.00 0.01 0.01 0.01 0.00 0.00 0.00 0.00 0.00 0.01 0.01 0.01 0.01 0.01 0.01 0.00 0.01 0.01 0.00 0.00 0.00 0.00 0.00 0.00 0.00 0.00 0.00 0.00 0.00 0.00 0.01 0.02 0.01 0.01 0.00 0.00 0.00 0.00 0.00 0.00 0.00
0.00 0.00 0.00 0.00 0.00 0.00 0.00 0.00 0.00 0.00 0.00 0.00 0.00 0.01 0.00 0.01 0.01 0.00 0.00 0.00 0.00 0.00 0.00 0.00 0.00 0.00 0.01 0.01 0.01 0.00 0.00 0.00 0.01 0.02 0.02 0.01 0.00 0.00 0.00 0.00 0.00 0.00 0.00
0.00 0.00 0.00 0.00 0.00 0.00 0.00 0.00 0.00 0.00 0.00 0.01 0.00 0.00 0.00 0.00 0.00 0.00 0.00 0.00 0.00 0.00 0.00 0.00 0.00 0.01 0.01 0.01 0.01 0.01 0.01 0.01 0.01 0.01 0.01 0.01 0.00 0.00 0.00 0.00 0.00 0.00 0.00
0.01 0.01 0.01 0.01 0.01 0.00 0.00 0.00 0.00 0.01 0.01 0.01 0.00 0.00 0.00 0.00 0.00 0.00 0.00 0.00 0.00 0.00 0.00 0.00 0.00 0.00 0.00 0.01 0.01 0.01 0.01 0.01 0.01 0.01 0.01 0.01 0.00 0.00 0.00 0.00 0.00 0.00 0.00
MSLP
1015.79 1015.76 1015.65 1015.49 1015.32 1015.19 1015.12 1015.12 1015.17 1015.26 1015.35 1015.44 1015.50 1015.55 1015.59 1015.64 1015.71 1015.79 1015.89 1015.98 1016.04 1016.06 1016.04 1015.97 1015.87 1015.73 1015.58 1015.42 1015.23 1015.03 1014.78 1014.50 1014.16 1013.78 1013.37 1012.92 1012.44 1011.93 1011.35 1010.70 1009.94 1009.08 1008.13
1015.79 1015.78 1015.70 1015.60 1015.50 1015.43 1015.41 1015.45 1015.53 1015.65 1015.76 1015.86 1015.94 1015.99 1016.03 1016.07 1016.12 1016.18 1016.24 1016.29 1016.33 1016.34 1016.32 1016.26 1016.17 1016.05 1015.91 1015.73 1015.52 1015.26 1014.97 1014.62 1014.24 1013.82 1013.39 1012.94 1012.45 1011.92 1011.31 1010.59 1009.72 1008.72 1007.59
1015.81 1015.82 1015.79 1015.75 1015.73 1015.74 1015.79 1015.89 1016.01 1016.15 1016.28 1016.40 1016.48 1016.53 1016.57 1016.59 1016.60 1016.62 1016.64 1016.65 1016.65 1016.64 1016.60 1016.55 1016.47 1016.36 1016.21 1016.02 1015.79 1015.49 1015.14 1014.75 1014.32 1013.87 1013.41 1012.94 1012.45 1011.90 1011.26 1010.48 1009.52 1008.38 1007.09
1015.87 1015.89 1015.91 1015.95 1016.01 1016.10 1016.23 1016.39 1016.55 1016.72 1016.86 1016.97 1017.06 1017.11 1017.13 1017.13 1017.12 1017.10 1017.07 1017.04 1016.99 1016.94 1016.89 1016.82 1016.74 1016.64 1016.49 1016.30 1016.04 1015.71 1015.32 1014.88 1014.40 1013.91 1013.43 1012.94 1012.43 1011.87 1011.20 1010.37 1009.35 1008.12 1006.71
1015.98 1016.01 1016.07 1016.17 1016.32 1016.49 1016.69 1016.89 1017.09 1017.26 1017.41 1017.53 1017.61 1017.66 1017.68 1017.67 1017.65 1017.60 1017.54 1017.46 1017.37 1017.29 1017.20 1017.12 1017.03 1016.91 1016.77 1016.57 1016.29 1015.94 1015.51 1015.03 1014.51 1013.98 1013.46 1012.95 1012.42 1011.85 1011.16 1010.31 1009.25 1007.96 1006.48
1016.13 1016.15 1016.25 1016.40 1016.61 1016.85 1017.09 1017.33 1017.54 1017.73 1017.87 1017.98 1018.07 1018.13 1018.16 1018.17 1018.15 1018.10 1018.02 1017.92 1017.81 1017.69 1017.57 1017.46 1017.35 1017.22 1017.07 1016.85 1016.57 1016.20 1015.74 1015.22 1014.67 1014.11 1013.55 1013.01 1012.47 1011.88 1011.18 1010.33 1009.26 1007.98 1006.49
1016.31 1016.32 1016.43 1016.61 1016.86 1017.13 1017.40 1017.66 1017.87 1018.05 1018.19 1018.30 1018.40 1018.49 1018.55 1018.60 1018.62 1018.60 1018.53 1018.43 1018.29 1018.15 1018.00 1017.86 1017.73 1017.59 1017.42 1017.20 1016.90 1016.51 1016.05 1015.50 1014.92 1014.33 1013.74 1013.18 1012.61 1012.01 1011.33 1010.49 1009.45 1008.20 1006.76
1016.50 1016.49 1016.59 1016.79 1017.04 1017.33 1017.60 1017.85 1018.05 1018.21 1018.35 1018.47 1018.59 1018.71 1018.84 1018.95 1019.03 1019.06 1019.04 1018.95 1018.82 1018.66 1018.49 1018.32 1018.17 1018.00 1017.82 1017.59 1017.29 1016.90 1016.43 1015.88 1015.28 1014.67 1014.06 1013.48 1012.90 1012.30 1011.62 1010.82 1009.85 1008.67 1007.32
1016.69 1016.66 1016.74 1016.92 1017.17 1017.44 1017.70 1017.92 1018.10 1018.24 1018.36 1018.49 1018.64 1018.82 1019.01 1019.20 1019.36 1019.46 1019.50 1019.45 1019.34 1019.18 1019.00 1018.81 1018.63 1018.45 1018.25 1018.02 1017.72 1017.35 1016.88 1016.34 1015.75 1015.13 1014.52 1013.92 1013.34 1012.74 1012.10 1011.35 1010.45 1009.38 1008.15
1016.89 1016.83 1016.89 1017.05 1017.27 1017.51 1017.73 1017.92 1018.06 1018.17 1018.29 1018.42 1018.60 1018.82 1019.08 1019.35 1019.59 1019.77 1019.87 1019.87 1019.79 1019.65 1019.46 1019.26 1019.06 1018.87 1018.67 1018.44 1018.16 1017.80 1017.36 1016.85 1016.28 1015.68 1015.07 1014.49 1013.91 1013.34 1012.73 1012.03 1011.22 1010.28 1009.19
1017.10 1017.01 1017.05 1017.18 1017.37 1017.57 1017.75 1017.90 1018.00 1018.09 1018.18 1018.31 1018.50 1018.76 1019.07 1019.39 1019.70 1019.94 1020.10 1020.16 1020.11 1019.99 1019.81 1019.61 1019.41 1019.21 1019.02 1018.80 1018.54 1018.22 1017.82 1017.35 1016.82 1016.25 1015.68 1015.12 1014.57 1014.03 1013.46 1012.83 1012.12 1011.29 1010.35
1017.32 1017.22 1017.24 1017.35 1017.51 1017.68 1017.82 1017.93 1017.99 1018.04 1018.11 1018.22 1018.41 1018.67 1019.00 1019.35 1019.69 1019.98 1020.18 1020.28 1020.26 1020.17 1020.01 1019.82 1019.63 1019.45 1019.27 1019.07 1018.84 1018.56 1018.21 1017.80 1017.32 1016.81 1016.29 1015.77 1015.26 1014.76 1014.24 1013.69 1013.06 1012.34 1011.54
1017.55 1017.47 1017.49 1017.58 1017.72 1017.86 1017.98 1018.05 1018.08 1018.10 1018.13 1018.21 1018.37 1018.61 1018.91 1019.26 1019.61 1019.91 1020.13 1020.24 1020.26 1020.20 1020.07 1019.91 1019.74 1019.57 1019.41 1019.25 1019.06 1018.82 1018.52 1018.17 1017.76 1017.31 1016.85 1016.39 1015.93 1015.48 1015.02 1014.53 1013.98 1013.37 1012.69
1017.82 1017.76 1017.79 1017.89 1018.01 1018.14 1018.24 1018.29 1018.30 1018.28 1018.28 1018.31 1018.42 1018.61 1018.87 1019.17 1019.49 1019.77 1019.98 1020.11 1020.16 1020.12 1020.03 1019.90 1019.77 1019.63 1019.50 1019.37 1019.21 1019.01 1018.76 1018.46 1018.12 1017.74 1017.34 1016.95 1016.55 1016.16 1015.76 1015.33 1014.86 1014.33 1013.75
1018.10 1018.08 1018.13 1018.24 1018.38 1018.51 1018.61 1018.65 1018.64 1018.60 1018.56 1018.55 1018.60 1018.72 1018.91 1019.14 1019.40 1019.64 1019.83 1019.97 1020.03 1020.02 1019.97 1019.89 1019.79 1019.69 1019.59 1019.48 1019.35 1019.18 1018.97 1018.72 1018.43 1018.11 1017.78 1017.45 1017.12 1016.79 1016.45 1016.08 1015.67 1015.21 1014.71
1018.41 1018.42 1018.50 1018.64 1018.79 1018.94 1019.05 1019.10 1019.09 1019.05 1018.98 1018.93 1018.92 1018.96 1019.07 1019.22 1019.41 1019.60 1019.76 1019.89 1019.97 1020.00 1019.99 1019.95 1019.90 1019.83 1019.75 1019.65 1019.53 1019.38 1019.19 1018.97 1018.72 1018.45 1018.18 1017.91 1017.65 1017.38 1017.09 1016.78 1016.43 1016.03 1015.58
1018.73 1018.77 1018.88 1019.04 1019.22 1019.39 1019.52 1019.60 1019.61 1019.57 1019.49 1019.41 1019.35 1019.33 1019.36 1019.45 1019.56 1019.70 1019.83 1019.95 1020.05 1020.11 1020.14 1020.15 1020.13 1020.09 1020.03 1019.94 1019.82 1019.66 1019.47 1019.26 1019.03 1018.80 1018.58 1018.36 1018.15 1017.94 1017.71 1017.45 1017.14 1016.78 1016.38
1019.06 1019.13 1019.25 1019.43 1019.63 1019.83 1019.99 1020.10 1020.14 1020.11 1020.04 1019.95 1019.86 1019.80 1019.78 1019.80 1019.86 1019.95 1020.06 1020.18 1020.28 1020.37 1020.45 1020.49 1020.50 1020.48 1020.43 1020.33 1020.19 1020.02 1019.82 1019.61 1019.39 1019.18 1018.98 1018.81 1018.65 1018.49 1018.30 1018.09 1017.82 1017.51 1017.14
1019.40 1019.48 1019.61 1019.80 1020.01 1020.23 1020.41 1020.55 1020.62 1020.62 1020.57 1020.49 1020.40 1020.31 1020.26 1020.24 1020.26 1020.33 1020.42 1020.53 1020.65 1020.76 1020.86 1020.93 1020.97 1020.96 1020.90 1020.80 1020.64 1020.45 1020.22 1020.00 1019.77 1019.57 1019.40 1019.26 1019.14 1019.02 1018.89 1018.71 1018.49 1018.21 1017.87
1019.74 1019.82 1019.95 1020.13 1020.35 1020.57 1020.76 1020.92 1021.01 1021.05 1021.02 1020.97 1020.89 1020.80 1020.74 1020.70 1020.71 1020.75 1020.83 1020.94 1021.06 1021.19 1021.31 1021.40 1021.45 1021.45 1021.39 1021.27 1021.10 1020.89 1020.65 1020.40 1020.17 1019.98 1019.82 1019.71 1019.62 1019.54 1019.45 1019.32 1019.13 1018.89 1018.58
1020.08 1020.15 1020.27 1020.44 1020.63 1020.84 1021.02 1021.18 1021.29 1021.35 1021.36 1021.33 1021.27 1021.21 1021.16 1021.13 1021.13 1021.16 1021.23 1021.33 1021.45 1021.59 1021.71 1021.81 1021.87 1021.88 1021.82 1021.70 1021.52 1021.29 1021.05 1020.79 1020.57 1020.38 1020.24 1020.15 1020.09 1020.05 1019.99 1019.90 1019.76 1019.55 1019.29
1020.41 1020.48 1020.58 1020.71 1020.87 1021.04 1021.20 1021.33 1021.44 1021.51 1021.54 1021.55 1021.53 1021.50 1021.47 1021.45 1021.46 1021.49 1021.55 1021.64 1021.76 1021.88 1022.01 1022.11 1022.18 1022.20 1022.15 1022.03 1021.86 1021.65 1021.40 1021.16 1020.94 1020.77 1020.65 1020.58 1020.55 1020.54 1020.52 1020.47 1020.37 1020.21 1019.99
1020.72 1020.78 1020.86 1020.95 1021.06 1021.17 1021.28 1021.38 1021.47 1021.54 1021.59 1021.62 1021.64 1021.65 1021.66 1021.66 1021.68 1021.71 1021.77 1021.85 1021.95 1022.06 1022.18 1022.28 1022.36 1022.39 1022.36 1022.28 1022.13 1021.94 1021.73 1021.51 1021.31 1021.16 1021.06 1021.02 1021.01 1021.04 1021.06 1021.05 1021.00 1020.89 1020.72
1020.98 1021.04 1021.10 1021.15 1021.19 1021.24 1021.29 1021.34 1021.39 1021.45 1021.52 1021.58 1021.64 1021.69 1021.73 1021.77 1021.80 1021.84 1021.89 1021.95 1022.03 1022.13 1022.24 1022.35 1022.44 1022.49 1022.50 1022.45 1022.36 1022.21 1022.04 1021.87 1021.71 1021.59 1021.52 1021.50 1021.52 1021.58 1021.64 1021.68 1021.67 1021.62 1021.51
1021.16 1021.23 1021.27 1021.27 1021.26 1021.24 1021.22 1021.22 1021.24 1021.29 1021.36 1021.45 1021.55 1021.65 1021.73 1021.80 1021.86 1021.91 1021.95 1022.00 1022.07 1022.15 1022.25 1022.37 1022.48 1022.56 1022.62 1022.63 1022.59 1022.51 1022.40 1022.28 1022.16 1022.08 1022.04 1022.05 1022.11 1022.19 1022.29 1022.38 1022.43 1022.44 1022.38
1021.23 1021.32 1021.34 1021.31 1021.25 1021.16 1021.09 1021.04 1021.04 1021.08 1021.17 1021.29 1021.43 1021.57 1021.71 1021.81 1021.90 1021.95 1022.00 1022.04 1022.10 1022.18 1022.28 1022.41 1022.54 1022.67 1022.78 1022.86 1022.89 1022.88 1022.84 1022.77 1022.71 1022.67 1022.66 1022.70 1022.79 1022.91 1023.05 1023.18 1023.29 1023.35 1023.36
Thickness
5726 5725 5725 5724 5723 5723 5722 5721 5721 5721 5720 5718 5718 5717 5716 5714 5714 5714 5713 5714 5715 5716 5717 5718 5719 5720 5721 5722 5724 5726 5729 5731 5732 5734 5736 5738 5741 5743 5745 5748 5749 5750 5752
5724 5723 5722 5722 5721 5720 5720 5719 5719 5718 5716 5715 5714 5713 5712 5711 5711 5710 5710 5710 5711 5712 5712 5714 5715 5716 5717 5718 5720 5723 5727 5729 5728 5729 5731 5733 5736 5738 5741 5743 5745 5746 5748
5722 5721 5720 5719 5719 5718 5717 5716 5716 5714 5713 5712 5710 5710 5709 5708 5708 5707 5707 5706 5707 5707 5708 5709 5710 5711 5712 5714 5716 5719 5723 5724 5724 5725 5727 5729 5732 5734 5737 5739 5741 5741 5743
5720 5719 5718 5717 5716 5716 5715 5714 5712 5710 5708 5707 5706 5706 5706 5705 5705 5704 5703 5703 5703 5703 5704 5704 5705 5706 5707 5709 5712 5714 5716 5718 5720 5721 5723 5725 5727 5731 5733 5735 5736 5737 5739
5718 5717 5716 5715 5715 5714 5713 5712 5709 5708 5705 5704 5703 5702 5702 5702 5702 5701 5700 5699 5699 5700 5700 5700 5701 5702 5703 5705 5707 5709 5711 5713 5715 5717 5719 5720 5722 5725 5727 5729 5730 5731 5733
5716 5715 5714 5714 5714 5712 5711 5709 5707 5706 5704 5702 5702 5699 5698 5699 5699 5698 5697 5697 5696 5696 5697 5697 5697 5698 5699 5700 5702 5704 5706 5708 5710 5712 5714 5715 5716 5718 5721 5723 5724 5725 5726
5714 5714 5713 5713 5712 5710 5708 5707 5705 5703 5701 5700 5697 5693 5693 5695 5695 5695 5695 5694 5694 5694 5694 5694 5694 5694 5695 5696 5697 5699 5701 5703 5704 5706 5707 5708 5710 5712 5715 5716 5717 5718 5719
5713 5713 5712 5711 5710 5708 5707 5706 5704 5701 5699 5699 5695 5689 5685 5686 5690 5692 5692 5692 5691 5692 5691 5691 5691 5691 5691 5692 5692 5695 5696 5697 5699 5701 5702 5703 5704 5706 5708 5710 5711 5711 5712
5712 5712 5711 5711 5709 5708 5705 5705 5703 5701 5697 5697 5697 5692 5684 5679 5682 5686 5687 5688 5688 5688 5688 5688 5688 5688 5687 5688 5689 5690 5691 5692 5694 5695 5696 5697 5698 5700 5701 5703 5704 5705 5706
5710 5710 5710 5709 5708 5707 5705 5705 5703 5701 5698 5695 5695 5695 5693 5689 5682 5679 5681 5684 5685 5685 5685 5685 5685 5684 5684 5684 5685 5686 5687 5688 5689 5690 5691 5692 5693 5694 5695 5696 5697 5698 5700
5708 5709 5709 5708 5707 5706 5705 5704 5703 5701 5699 5696 5694 5693 5691 5689 5687 5681 5676 5678 5680 5681 5681 5681 5681 5681 5681 5681 5681 5682 5682 5683 5684 5684 5685 5686 5687 5688 5689 5690 5691 5692 5693
5706 5707 5707 5707 5706 5705 5704 5703 5702 5700 5699 5697 5695 5694 5692 5689 5686 5683 5678 5675 5674 5676 5678 5678 5678 5678 5678 5678 5678 5678 5678 5679 5679 5679 5680 5680 5681 5682 5683 5684 5685 5685 5686
5702 5704 5705 5705 5704 5704 5703 5702 5701 5699 5698 5696 5695 5693 5693 5691 5689 5686 5681 5675 5673 5673 5674 5675 5675 5675 5675 5675 5675 5675 5675 5675 5675 5675 5675 5675 5676 5676 5677 5677 5678 5679 5679
5702 5703 5704 5703 5703 5703 5702 5701 5699 5698 5697 5696 5695 5693 5692 5691 5690 5688 5683 5677 5671 5669 5669 5670 5672 5672 5672 5672 5672 5672 5671 5671 5671 5671 5671 5671 5671 5671 5671 5672 5672 5672 5673
5702 5702 5702 5701 5701 5701 5700 5699 5697 5696 5695 5694 5693 5692 5691 5690 5689 5687 5685 5682 5675 5667 5665 5667 5668 5670 5670 5670 5670 5669 5669 5668 5668 5668 5667 5667 5667 5666 5666 5666 5666 5666 5666
5701 5700 5700 5699 5699 5699 5698 5697 5695 5695 5694 5692 5691 5690 5689 5687 5686 5685 5684 5682 5679 5672 5665 5665 5666 5668 5668 5668 5667 5667 5666 5666 5665 5664 5664 5663 5662 5662 5661 5660 5660 5660 5659
5699 5698 5698 5697 5696 5696 5696 5695 5693 5692 5691 5690 5689 5687 5686 5685 5683 5682 5681 5679 5676 5672 5666 5664 5664 5665 5665 5664 5664 5664 5663 5662 5662 5661 5660 5659 5658 5657 5656 5655 5654 5653 5653
5697 5697 5696 5695 5694 5694 5693 5692 5691 5690 5689 5687 5686 5685 5683 5683 5681 5679 5678 5675 5673 5671 5667 5662 5661 5661 5661 5661 5660 5660 5659 5659 5658 5657 5656 5654 5653 5652 5651 5650 5649 5647 5646
5694 5694 5694 5692 5692 5691 5691 5690 5689 5687 5686 5685 5684 5682 5680 5679 5677 5676 5674 5672 5670 5668 5665 5661 5658 5657 5657 5657 5656 5655 5655 5654 5654 5652 5651 5650 5648 5647 5646 5644 5643 5641 5640
5692 5691 5691 5691 5690 5689 5688 5687 5686 5685 5684 5683 5681 5680 5679 5677 5675 5673 5671 5669 5667 5664 5661 5658 5654 5652 5651 5651 5650 5648 5647 5647 5647 5647 5645 5644 5642 5641 5640 5638 5636 5635 5633
5690 5689 5688 5688 5687 5687 5686 5685 5684 5682 5680 5679 5678 5677 5676 5676 5674 5673 5670 5666 5664 5660 5656 5652 5649 5647 5645 5644 5643 5642 5641 5641 5641 5640 5638 5638 5637 5635 5633 5631 5629 5628 5626
5686 5686 5685 5684 5684 5684 5683 5683 5682 5679 5677 5675 5674 5673 5673 5672 5671 5670 5668 5665 5662 5658 5653 5649 5645 5642 5641 5640 5639 5638 5636 5634 5632 5634 5631 5630 5630 5628 5626 5624 5622 5621 5619
5683 5682 5681 5680 5680 5680 5680 5680 5678 5676 5674 5672 5670 5669 5669 5668 5666 5665 5662 5660 5658 5656 5653 5649 5644 5641 5639 5638 5636 5633 5630 5628 5626 5626 5625 5622 5622 5620 5619 5617 5615 5613 5611
5679 5678 5677 5677 5676 5676 5676 5676 5675 5673 5670 5668 5667 5665 5664 5663 5662 5660 5657 5654 5651 5649 5648 5646 5643 5640 5638 5636 5633 5631 5628 5624 5622 5620 5619 5614 5613 5611 5611 5609 5607 5604 5602
5676 5675 5675 5674 5673 5672 5672 5672 5671 5668 5665 5663 5662 5661 5660 5658 5658 5656 5652 5648 5645 5643 5642 5640 5638 5636 5634 5632 5629 5625 5621 5617 5613 5612 5610 5606 5604 5602 5602 5600 5598 5596 5593
5673 5672 5671 5670 5670 5668 5668 5668 5667 5664 5660 5657 5656 5655 5655 5654 5652 5650 5647 5643 5639 5637 5635 5634 5631 5630 5627 5625 5622 5619 5615 5610 5605 5602 5602 5598 5595 5593 5591 5590 5588 5586 5583